Regional Weather Roundup
Issued by NWS

Home | Current Version | Previous Version | Text Only | Print | Product List | Glossary Off
Versions: 1 2 3 4 5 6 7 8 9 10 11 12 13 14 15 16 17 18 19 20 21 22 23 24 25 26 27 28 29 30 31 32 33 34 35 36 37 38 39 40 41 42 43 44 45 46 47 48 49 50

000
ASUS43 KLMK 111202
RWRKY
KENTUCKY REGIONAL WEATHER ROUNDUP
NATIONAL WEATHER SERVICE LOUISVILLE KY
700 AM EST THU FEB 11 2016

NOTE "FAIR" INDICATES FEW OR NO CLOUDS BELOW 12,000 FEET
WITH NO SIGNIFICANT WEATHER AND/OR OBSTRUCTIONS TO VISIBILITY.

KYZ001>023-026-027-061>063-070>075-111300-
WESTERN AND SOUTH CENTRAL KENTUCKY

CITY           SKY/WX    TMP DP  RH WIND       PRES   REMARKS
PADUCAH        CLOUDY    27  19  72 NE8       30.21R WCI  19
HENDERSON      CLOUDY    23  18  80 NE7       30.25R WCI  15
OWENSBORO      CLOUDY    23  19  85 NE8       30.25R WCI  14
HOPKINSVILLE   CLOUDY    25  21  84 E7        30.20R WCI  17
BOWLING GREEN  CLOUDY    25  19  78 NE8       30.23R WCI  16
GLASGOW        NOT AVBL
$$

KYZ024-025-028>034-038-045-046-053-111300-
NORTH CENTRAL KENTUCKY

CITY           SKY/WX    TMP DP  RH WIND       PRES   REMARKS
LOUISVILLE/SDF CLOUDY    22  10  60 N6        30.24R WCI  14
LOUISVILLE/LOU CLOUDY    21   9  59 N7        30.25R WCI  12
FORT KNOX      CLOUDY    20  14  76 N2        30.21R
$$

KYZ035>037-039>044-047>052-055>060-089>105-111300-
NORTHEAST KENTUCKY

CITY           SKY/WX    TMP DP  RH WIND       PRES   REMARKS
LEXINGTON      CLOUDY    15  10  80 CALM      30.20R
COVINGTON      CLOUDY    12   6  77 W5        30.20R WCI   4
FRANKFORT        N/A     17  10  74 CALM      30.21R
$$

KYZ054-064>069-076>088-106>120-111300-
SOUTHEAST KENTUCKY

CITY           SKY/WX    TMP DP  RH WIND       PRES   REMARKS
JACKSON        CLOUDY    15   9  76 CALM      30.16R
LONDON         CLOUDY    20  11  68 CALM      30.18R
SOMERSET       NOT AVBL
MIDDLESBORO    NOT AVBL
MONTICELLO     CLOUDY    22  18  85 MISG      30.22R
$$




USA.gov is the U.S. government's official web portal to all federal, state and local government web resources and services.